Regional Weather Roundup
Issued by NWS Raleigh/Durham, NC

Current Version | Previous Version | Text Only | Print | Product List | Glossary On
Versions: 1 2 3 4 5 6 7 8 9 10 11 12 13 14 15 16 17 18 19 20 21 22 23 24 25 26 27 28
000 ASUS42 KRAH 242110 RWRRAH NORTH CAROLINA WEATHER ROUNDUP NATIONAL WEATHER SERVICE RALEIGH NC 500 PM EDT FRI OCT 24 2014 NOTE: "FAIR" INDICATES FEW OR NO CLOUDS BELOW 12,000 FEET WITH NO SIGNIFICANT WEATHER AND/OR OBSTRUCTIONS TO VISIBILITY. NCZ001-053-055-056-065-067-242200- WESTERN NORTH CAROLINA CITY SKY/WX TMP DP RH WIND PRES REMARKS ASHEVILLE CLOUDY 64 34 32 N7 30.02F JEFFERSON SUNNY 63 28 26 N3 30.03S MORGANTON CLOUDY 65 44 45 CALM 30.04S HICKORY CLOUDY 63 42 46 S3 29.99F RUTHERFORDTON CLOUDY 63 44 48 CALM 30.01F MOUNT AIRY MOSUNNY 70 38 30 CALM 29.99F BOONE PTSUNNY 61 32 34 W13 30.04S $$ NCZ021-022-025-041-071-084-088-242200- CENTRAL NORTH CAROLINA CITY SKY/WX TMP DP RH WIND PRES REMARKS CHARLOTTE CLOUDY 66 40 38 W5 30.00F GREENSBORO PTSUNNY 68 39 34 N3 29.97F WINSTON-SALEM MOSUNNY 67 35 30 W6 29.99F RALEIGH-DURHAM PTSUNNY 68 47 46 SW5 29.96S FORT BRAGG PTSUNNY 69 46 42 W5 29.97R FAYETTEVILLE PTSUNNY 71 45 39 NW6 29.96S BURLINGTON PTSUNNY 66 39 37 S6 29.97S LAURINBURG MOSUNNY 69 46 43 W5 29.97F $$ NCZ011-015-027-028-043-044-047-080-103-242200- NORTHEASTERN NORTH CAROLINA CITY SKY/WX TMP DP RH WIND PRES REMARKS ROCKY MT-WILSO PTSUNNY 70 45 40 W5 29.95F GREENVILLE PTSUNNY 70 46 43 W5 29.97S WASHINGTON MOSUNNY 68 47 46 NW3 29.94F ELIZABETH CITY SUNNY 69 49 48 W10 29.92R MANTEO MOSUNNY 65 50 58 NW6 29.92S CAPE HATTERAS MOSUNNY 62 51 67 NW5 29.93F $$ NCZ078-087-090-091-093-098-101-242200- SOUTHEASTERN NORTH CAROLINA CITY SKY/WX TMP DP RH WIND PRES REMARKS LUMBERTON MOSUNNY 73 44 35 SW3 29.96S GOLDSBORO PTSUNNY 71 50 46 W7 29.94S KINSTON PTSUNNY 68 46 45 W3 29.96S KENANSVILLE SUNNY 68 46 45 W5 29.96S NEW BERN MOSUNNY 72 48 42 W3 29.95F CHERRY POINT MOSUNNY 70 47 43 NW9 29.95F BEAUFORT MOSUNNY 68 50 52 W6 29.94F JACKSONVILLE SUNNY 69 47 45 W7 29.95S WILMINGTON SUNNY 70 49 47 CALM 29.95F $$

USA.gov is the U.S. government's official web portal to all federal, state and local government web resources and services.